QPF
0.00 0.00 0.00 0.00 0.00 0.00 0.00 0.00 0.00 0.00 0.00 0.00 0.00 0.00 0.00 0.00 0.00 0.00 0.00 0.00 0.00 0.00 0.00 0.00 0.00 0.00 0.00 0.00 0.00 0.00 0.01 0.01 0.00 0.00 0.00 0.00 0.00 0.00 0.00 0.02 0.00 0.00 0.00 0.00 0.00 0.00 0.00 0.00 0.00 0.00 0.00 0.00 0.00 0.00 0.00 0.00 0.00 0.00 0.00 0.00 0.00 0.00 0.00
0.00 0.00 0.00 0.00 0.00 0.00 0.00 0.00 0.00 0.00 0.00 0.00 0.00 0.00 0.00 0.00 0.00 0.00 0.00 0.00 0.00 0.00 0.01 0.00 0.00 0.00 0.00 0.00 0.00 0.00 0.00 0.00 0.00 0.00 0.00 0.00 0.00 0.00 0.00 0.00 0.03 0.04 0.17 0.00 0.00 0.00 0.00 0.00 0.00 0.00 0.00 0.00 0.00 0.00 0.00 0.00 0.00 0.00 0.00 0.00 0.00 0.00 0.00
0.00 0.00 0.00 0.00 0.00 0.00 0.00 0.00 0.00 0.00 0.00 0.00 0.00 0.00 0.00 0.00 0.00 0.00 0.00 0.00 0.00 0.00 0.00 0.00 0.00 0.00 0.00 0.00 0.00 0.00 0.00 0.00 0.00 0.00 0.00 0.00 0.00 0.00 0.00 0.00 0.00 0.01 0.02 0.02 0.01 0.00 0.00 0.00 0.00 0.00 0.00 0.00 0.00 0.00 0.00 0.00 0.00 0.00 0.00 0.00 0.00 0.00 0.00
0.00 0.00 0.00 0.00 0.00 0.00 0.00 0.00 0.00 0.00 0.00 0.00 0.00 0.00 0.00 0.00 0.00 0.00 0.00 0.00 0.00 0.00 0.00 0.00 0.00 0.00 0.00 0.00 0.00 0.00 0.00 0.00 0.00 0.00 0.00 0.00 0.00 0.00 0.00 0.00 0.00 0.00 0.00 0.02 0.04 0.00 0.00 0.00 0.00 0.00 0.00 0.00 0.00 0.00 0.00 0.00 0.00 0.00 0.00 0.00 0.00 0.00 0.00
0.00 0.00 0.00 0.00 0.00 0.00 0.00 0.00 0.00 0.00 0.00 0.00 0.00 0.00 0.00 0.00 0.00 0.00 0.00 0.00 0.00 0.00 0.00 0.00 0.00 0.00 0.00 0.00 0.00 0.00 0.00 0.00 0.00 0.00 0.00 0.00 0.00 0.01 0.00 0.00 0.00 0.00 0.00 0.00 0.01 0.04 0.01 0.00 0.00 0.00 0.00 0.00 0.00 0.00 0.00 0.00 0.00 0.00 0.00 0.00 0.00 0.00 0.00
0.00 0.00 0.00 0.00 0.00 0.00 0.00 0.00 0.00 0.00 0.00 0.00 0.00 0.00 0.00 0.00 0.00 0.00 0.00 0.00 0.00 0.00 0.00 0.00 0.00 0.00 0.00 0.00 0.00 0.00 0.00 0.00 0.00 0.00 0.00 0.00 0.00 0.00 0.01 0.00 0.00 0.00 0.00 0.00 0.04 0.01 0.00 0.01 0.00 0.00 0.00 0.00 0.00 0.00 0.00 0.00 0.00 0.00 0.00 0.00 0.00 0.00 0.00
0.00 0.00 0.00 0.00 0.00 0.00 0.00 0.00 0.00 0.00 0.00 0.00 0.00 0.00 0.00 0.00 0.00 0.00 0.00 0.00 0.02 0.00 0.00 0.00 0.00 0.01 0.00 0.00 0.00 0.00 0.00 0.00 0.00 0.00 0.00 0.00 0.00 0.00 0.00 0.00 0.17 0.08 0.00 0.00 0.09 0.04 0.02 0.02 0.00 0.00 0.00 0.00 0.00 0.00 0.00 0.00 0.00 0.00 0.00 0.00 0.00 0.00 0.00
0.00 0.00 0.00 0.00 0.00 0.00 0.00 0.00 0.00 0.00 0.00 0.00 0.00 0.00 0.00 0.00 0.00 0.01 0.01 0.00 0.00 0.00 0.00 0.00 0.00 0.00 0.00 0.00 0.00 0.00 0.00 0.00 0.00 0.00 0.00 0.00 0.00 0.00 0.00 0.00 0.54 0.61 0.33 0.03 0.00 0.02 0.00 0.06 0.01 0.00 0.00 0.00 0.00 0.00 0.00 0.00 0.00 0.00 0.00 0.00 0.00 0.00 0.00
0.00 0.00 0.00 0.00 0.00 0.00 0.00 0.00 0.00 0.00 0.00 0.00 0.00 0.00 0.00 0.00 0.00 0.00 0.00 0.00 0.00 0.00 0.00 0.00 0.00 0.00 0.00 0.00 0.00 0.00 0.00 0.00 0.00 0.00 0.00 0.00 0.00 0.00 0.00 0.00 0.25 0.41 0.39 0.06 0.00 0.00 0.00 0.02 0.03 0.00 0.00 0.00 0.00 0.00 0.00 0.00 0.00 0.00 0.00 0.00 0.00 0.00 0.00
0.00 0.00 0.00 0.00 0.00 0.00 0.00 0.00 0.00 0.00 0.00 0.00 0.00 0.00 0.00 0.00 0.00 0.00 0.00 0.00 0.00 0.00 0.00 0.00 0.00 0.00 0.00 0.00 0.00 0.00 0.00 0.00 0.00 0.00 0.00 0.00 0.00 0.00 0.00 0.00 0.00 0.09 0.16 0.15 0.03 0.00 0.00 0.00 0.00 0.05 0.00 0.00 0.00 0.00 0.00 0.00 0.00 0.00 0.00 0.00 0.00 0.00 0.00
0.00 0.00 0.00 0.00 0.00 0.00 0.00 0.00 0.00 0.00 0.00 0.00 0.00 0.00 0.00 0.00 0.00 0.00 0.00 0.00 0.00 0.00 0.00 0.00 0.00 0.00 0.00 0.00 0.00 0.00 0.00 0.00 0.00 0.00 0.03 0.12 0.02 0.00 0.08 0.07 0.05 0.22 0.20 0.16 0.20 0.19 0.00 0.00 0.00 0.01 0.00 0.00 0.00 0.00 0.00 0.00 0.00 0.00 0.00 0.00 0.00 0.00 0.00
0.00 0.00 0.00 0.00 0.00 0.00 0.00 0.00 0.00 0.00 0.00 0.00 0.00 0.00 0.00 0.00 0.00 0.00 0.00 0.00 0.00 0.00 0.00 0.00 0.00 0.00 0.00 0.00 0.00 0.00 0.00 0.00 0.00 0.00 0.00 0.00 0.08 0.15 0.05 0.15 0.17 0.36 0.42 0.29 0.34 0.48 0.24 0.12 0.01 0.01 0.01 0.01 0.01 0.04 0.01 0.00 0.00 0.00 0.00 0.00 0.00 0.00 0.00
0.00 0.00 0.00 0.00 0.00 0.00 0.00 0.00 0.00 0.00 0.00 0.00 0.00 0.00 0.00 0.00 0.00 0.00 0.00 0.00 0.00 0.00 0.00 0.00 0.00 0.00 0.00 0.00 0.00 0.00 0.00 0.00 0.00 0.00 0.00 0.00 0.02 0.09 0.10 0.08 0.08 0.26 0.40 0.29 0.29 0.22 0.26 0.20 0.14 0.01 0.00 0.02 0.05 0.01 0.01 0.09 0.00 0.00 0.00 0.00 0.00 0.00 0.00
0.00 0.00 0.00 0.00 0.00 0.00 0.00 0.00 0.00 0.00 0.00 0.00 0.00 0.00 0.00 0.00 0.00 0.00 0.00 0.00 0.00 0.00 0.00 0.00 0.00 0.00 0.00 0.00 0.00 0.00 0.00 0.00 0.00 0.00 0.00 0.00 0.00 0.00 0.03 0.11 0.10 0.11 0.11 0.25 0.26 0.04 0.12 0.17 0.20 0.17 0.00 0.00 0.00 0.00 0.00 0.11 0.12 0.09 0.00 0.00 0.00 0.00 0.00
0.00 0.00 0.00 0.00 0.00 0.00 0.00 0.00 0.00 0.00 0.00 0.00 0.00 0.00 0.00 0.00 0.00 0.00 0.00 0.00 0.00 0.00 0.00 0.00 0.00 0.00 0.00 0.00 0.00 0.00 0.00 0.00 0.00 0.00 0.01 0.01 0.00 0.00 0.00 0.01 0.00 0.02 0.06 0.16 0.29 0.19 0.09 0.06 0.02 0.05 0.00 0.00 0.00 0.00 0.00 0.01 0.01 0.02 0.07 0.00 0.00 0.00 0.00
0.00 0.00 0.00 0.00 0.00 0.00 0.00 0.00 0.00 0.00 0.00 0.00 0.00 0.00 0.00 0.00 0.00 0.00 0.00 0.00 0.00 0.00 0.00 0.00 0.00 0.00 0.00 0.00 0.00 0.00 0.00 0.00 0.00 0.00 0.00 0.01 0.01 0.00 0.00 0.00 0.01 0.00 0.00 0.08 0.15 0.30 0.05 0.19 0.24 0.11 0.09 0.00 0.00 0.00 0.00 0.00 0.00 0.00 0.00 0.04 0.02 0.02 0.07
0.00 0.00 0.00 0.00 0.00 0.00 0.00 0.00 0.00 0.00 0.00 0.00 0.00 0.00 0.00 0.00 0.00 0.00 0.00 0.00 0.00 0.00 0.00 0.00 0.00 0.00 0.00 0.00 0.00 0.00 0.00 0.00 0.00 0.00 0.00 0.01 0.01 0.00 0.00 0.00 0.00 0.00 0.00 0.01 0.01 0.01 0.02 0.02 0.01 0.01 0.00 0.00 0.01 0.00 0.00 0.00 0.01 0.02 0.00 0.00 0.03 0.06 0.34
0.00 0.00 0.00 0.00 0.00 0.00 0.00 0.00 0.00 0.00 0.00 0.00 0.00 0.00 0.00 0.00 0.00 0.00 0.00 0.00 0.00 0.00 0.00 0.00 0.00 0.00 0.00 0.00 0.00 0.00 0.00 0.00 0.00 0.00 0.00 0.01 0.01 0.00 0.00 0.00 0.00 0.00 0.00 0.00 0.00 0.00 0.01 0.04 0.01 0.08 0.00 0.00 0.00 0.00 0.00 0.00 0.01 0.01 0.00 0.00 0.00 0.01 0.07
0.00 0.00 0.00 0.00 0.00 0.00 0.00 0.00 0.00 0.00 0.00 0.00 0.00 0.00 0.00 0.00 0.00 0.00 0.00 0.00 0.00 0.00 0.00 0.00 0.00 0.00 0.00 0.00 0.00 0.00 0.00 0.00 0.00 0.00 0.00 0.00 0.00 0.00 0.00 0.00 0.00 0.00 0.00 0.00 0.00 0.00 0.00 0.01 0.01 0.01 0.06 0.01 0.00 0.00 0.00 0.00 0.02 0.00 0.01 0.01 0.01 0.01 0.01
0.00 0.00 0.00 0.00 0.00 0.00 0.00 0.00 0.00 0.00 0.00 0.00 0.00 0.00 0.00 0.00 0.00 0.00 0.00 0.00 0.00 0.00 0.00 0.00 0.00 0.00 0.00 0.00 0.00 0.00 0.00 0.00 0.00 0.00 0.00 0.00 0.00 0.00 0.00 0.00 0.00 0.00 0.00 0.00 0.00 0.00 0.00 0.00 0.01 0.01 0.01 0.00 0.00 0.03 0.00 0.01 0.00 0.07 0.08 0.01 0.00 0.00 0.02
0.00 0.00 0.00 0.00 0.00 0.00 0.00 0.00 0.00 0.00 0.00 0.00 0.00 0.00 0.00 0.00 0.00 0.00 0.00 0.00 0.00 0.00 0.00 0.00 0.00 0.00 0.00 0.00 0.00 0.00 0.00 0.00 0.00 0.00 0.00 0.00 0.00 0.00 0.00 0.00 0.00 0.00 0.00 0.00 0.00 0.00 0.00 0.00 0.01 0.01 0.02 0.13 0.17 0.08 0.23 0.11 0.02 0.20 0.15 0.01 0.00 0.00 0.01
0.00 0.00 0.00 0.00 0.00 0.00 0.00 0.00 0.00 0.00 0.00 0.00 0.00 0.00 0.00 0.00 0.00 0.00 0.00 0.00 0.00 0.00 0.00 0.00 0.00 0.00 0.00 0.00 0.00 0.00 0.00 0.00 0.00 0.00 0.00 0.00 0.00 0.00 0.00 0.00 0.00 0.00 0.00 0.00 0.00 0.00 0.00 0.02 0.01 0.05 0.01 0.04 0.33 0.82 0.43 0.36 0.38 0.08 0.04 0.11 0.08 0.00 0.00
0.00 0.00 0.00 0.00 0.00 0.00 0.00 0.00 0.00 0.00 0.00 0.00 0.00 0.00 0.00 0.00 0.00 0.00 0.00 0.00 0.00 0.00 0.00 0.00 0.00 0.00 0.00 0.00 0.00 0.00 0.00 0.00 0.00 0.00 0.00 0.00 0.00 0.00 0.00 0.00 0.00 0.00 0.00 0.00 0.00 0.00 0.01 0.17 0.24 0.07 0.17 0.18 0.09 0.24 0.27 0.44 0.23 0.74 0.63 0.43 0.12 0.01 0.00
0.00 0.00 0.00 0.00 0.00 0.00 0.00 0.00 0.00 0.00 0.00 0.00 0.00 0.00 0.00 0.00 0.00 0.00 0.00 0.00 0.00 0.00 0.00 0.00 0.00 0.00 0.00 0.00 0.00 0.00 0.00 0.00 0.00 0.00 0.00 0.00 0.00 0.00 0.00 0.00 0.00 0.00 0.00 0.00 0.00 0.00 0.04 0.60 1.31 0.62 0.19 0.17 0.13 0.11 0.32 0.27 0.14 0.09 0.20 0.46 0.26 0.20 0.04
0.00 0.00 0.00 0.00 0.00 0.00 0.00 0.00 0.00 0.00 0.00 0.00 0.00 0.00 0.00 0.00 0.00 0.00 0.00 0.00 0.00 0.00 0.00 0.00 0.00 0.00 0.00 0.00 0.00 0.00 0.00 0.00 0.00 0.00 0.00 0.00 0.00 0.00 0.00 0.00 0.00 0.00 0.00 0.00 0.00 0.00 0.00 0.29 1.57 1.15 0.73 0.35 0.36 0.21 0.17 0.33 0.16 0.16 0.17 0.16 0.15 0.09 0.07
0.00 0.00 0.00 0.00 0.00 0.00 0.00 0.00 0.00 0.00 0.00 0.00 0.00 0.00 0.00 0.00 0.00 0.00 0.00 0.00 0.00 0.00 0.00 0.00 0.00 0.00 0.00 0.00 0.00 0.00 0.00 0.00 0.00 0.00 0.00 0.00 0.00 0.00 0.00 0.00 0.00 0.00 0.00 0.00 0.00 0.00 0.00 0.01 0.72 1.75 0.99 0.41 0.20 0.45 0.38 0.37 0.62 0.45 0.49 0.45 0.31 0.14 0.09
0.00 0.00 0.00 0.00 0.00 0.00 0.00 0.00 0.00 0.00 0.00 0.00 0.00 0.00 0.00 0.00 0.00 0.00 0.00 0.00 0.00 0.00 0.00 0.00 0.00 0.00 0.00 0.00 0.00 0.00 0.00 0.00 0.00 0.00 0.00 0.00 0.00 0.00 0.00 0.00 0.00 0.00 0.00 0.00 0.00 0.00 0.00 0.01 0.03 0.82 1.39 0.61 0.43 0.58 0.48 0.59 0.33 0.21 0.18 0.20 0.19 0.17 0.19
0.00 0.00 0.00 0.00 0.00 0.00 0.00 0.00 0.00 0.00 0.00 0.00 0.00 0.00 0.00 0.00 0.00 0.00 0.00 0.00 0.00 0.00 0.00 0.00 0.00 0.00 0.00 0.00 0.00 0.00 0.00 0.00 0.00 0.00 0.00 0.00 0.00 0.00 0.00 0.00 0.00 0.00 0.00 0.00 0.00 0.01 0.04 0.01 0.01 0.06 0.72 1.01 0.67 0.47 0.58 0.55 0.36 0.30 0.26 0.31 0.46 0.33 0.29
0.00 0.00 0.00 0.00 0.00 0.00 0.00 0.00 0.00 0.00 0.00 0.00 0.00 0.00 0.00 0.00 0.00 0.00 0.00 0.00 0.00 0.00 0.00 0.00 0.00 0.00 0.00 0.00 0.00 0.00 0.00 0.00 0.00 0.00 0.00 0.00 0.00 0.00 0.00 0.00 0.00 0.00 0.00 0.00 0.00 0.03 0.05 0.02 0.01 0.02 0.20 0.20 0.32 0.39 0.36 0.39 0.35 0.36 0.34 0.31 0.27 0.30 0.29
0.00 0.00 0.00 0.00 0.00 0.00 0.00 0.00 0.00 0.00 0.00 0.00 0.00 0.00 0.00 0.00 0.00 0.00 0.00 0.00 0.00 0.00 0.00 0.00 0.00 0.00 0.00 0.00 0.00 0.00 0.00 0.00 0.00 0.00 0.00 0.00 0.00 0.00 0.00 0.00 0.00 0.00 0.00 0.00 0.01 0.06 0.05 0.03 0.07 0.09 0.16 0.64 0.35 0.45 0.46 0.33 0.40 0.28 0.35 0.30 0.28 0.33 0.37
0.00 0.00 0.00 0.00 0.00 0.00 0.00 0.00 0.00 0.00 0.00 0.00 0.00 0.00 0.00 0.00 0.00 0.00 0.00 0.00 0.00 0.00 0.00 0.00 0.00 0.00 0.00 0.00 0.00 0.00 0.00 0.00 0.00 0.00 0.00 0.00 0.00 0.00 0.00 0.00 0.00 0.00 0.00 0.00 0.01 0.02 0.06 0.03 0.08 0.04 0.11 0.41 0.44 0.30 0.36 0.35 0.31 0.32 0.25 0.23 0.24 0.35 0.31
0.00 0.00 0.00 0.00 0.00 0.00 0.00 0.00 0.00 0.00 0.00 0.00 0.00 0.00 0.00 0.00 0.00 0.00 0.00 0.00 0.00 0.00 0.00 0.00 0.00 0.00 0.00 0.00 0.00 0.00 0.00 0.00 0.00 0.00 0.00 0.00 0.00 0.00 0.00 0.00 0.00 0.00 0.00 0.00 0.00 0.01 0.01 0.03 0.05 0.03 0.09 0.20 0.28 0.36 0.12 0.11 0.10 0.15 0.14 0.20 0.22 0.31 0.29
0.00 0.00 0.00 0.00 0.00 0.00 0.00 0.00 0.00 0.00 0.00 0.00 0.00 0.00 0.00 0.00 0.00 0.00 0.00 0.00 0.00 0.00 0.00 0.00 0.00 0.00 0.00 0.00 0.00 0.00 0.00 0.00 0.00 0.00 0.00 0.00 0.00 0.00 0.00 0.00 0.00 0.00 0.00 0.01 0.01 0.06 0.04 0.03 0.07 0.08 0.03 0.39 0.77 0.26 0.12 0.32 0.02 0.03 0.06 0.08 0.10 0.11 0.15
0.00 0.00 0.00 0.00 0.00 0.00 0.00 0.00 0.00 0.00 0.00 0.00 0.00 0.00 0.00 0.00 0.00 0.00 0.00 0.00 0.00 0.00 0.00 0.00 0.00 0.00 0.00 0.00 0.00 0.00 0.00 0.00 0.00 0.00 0.00 0.00 0.00 0.00 0.00 0.00 0.00 0.00 0.00 0.00 0.00 0.02 0.05 0.06 0.05 0.06 0.03 0.32 0.12 0.15 0.26 0.11 0.02 0.02 0.03 0.04 0.04 0.04 0.05
0.00 0.00 0.00 0.00 0.00 0.00 0.00 0.00 0.00 0.00 0.00 0.00 0.00 0.00 0.00 0.00 0.00 0.00 0.00 0.00 0.00 0.00 0.00 0.00 0.00 0.00 0.00 0.00 0.00 0.00 0.00 0.00 0.00 0.00 0.00 0.00 0.00 0.00 0.00 0.00 0.00 0.00 0.00 0.00 0.00 0.02 0.06 0.05 0.07 0.06 0.09 0.26 0.23 0.45 0.30 0.45 0.11 0.00 0.00 0.00 0.00 0.00 0.01
0.00 0.00 0.00 0.00 0.00 0.00 0.00 0.00 0.00 0.00 0.00 0.00 0.00 0.00 0.00 0.00 0.00 0.00 0.00 0.00 0.00 0.00 0.00 0.00 0.00 0.00 0.00 0.00 0.00 0.00 0.00 0.00 0.00 0.00 0.00 0.00 0.00 0.00 0.00 0.00 0.00 0.00 0.00 0.00 0.00 0.00 0.01 0.02 0.03 0.03 0.02 0.04 0.06 0.06 0.06 0.05 0.01 0.00 0.00 0.00 0.00 0.00 0.00
0.00 0.00 0.00 0.00 0.00 0.00 0.00 0.00 0.00 0.00 0.00 0.00 0.00 0.00 0.00 0.00 0.00 0.00 0.00 0.01 0.00 0.00 0.00 0.00 0.00 0.00 0.00 0.00 0.00 0.00 0.00 0.00 0.00 0.00 0.00 0.00 0.00 0.00 0.00 0.00 0.00 0.00 0.00 0.00 0.00 0.00 0.00 0.00 0.00 0.00 0.00 0.00 0.00 0.01 0.01 0.01 0.00 0.00 0.00 0.00 0.00 0.00 0.00
MSLP
1009.19 1009.11 1008.59 1009.15 1008.83 1015.95 1013.31 1013.23 1015.63 1014.71 1012.71 1014.15 1016.75 1017.67 1017.15 1017.35 1018.23 1019.67 1017.47 1017.95 1016.99 1014.83 1014.47 1013.79 1013.47 1013.63 1013.43 1013.11 1012.99 1012.79 1012.79 1012.47 1012.35 1012.59 1012.39 1012.19 1012.07 1011.83 1011.91 1012.11 1012.19 1012.23 1012.19 1012.19 1012.27 1012.47 1012.83 1012.95 1013.19 1013.51 1013.75 1013.99 1014.27 1014.67 1014.99 1015.23 1015.35 1015.51 1015.71 1015.79 1015.87 1015.91 1016.07
1008.99 1008.59 1008.51 1008.71 1008.75 1009.19 1012.19 1015.11 1014.07 1012.19 1012.27 1013.03 1015.35 1019.15 1018.47 1018.95 1020.47 1019.71 1018.23 1019.27 1018.99 1018.03 1018.75 1014.83 1014.47 1014.55 1014.15 1013.79 1013.31 1013.15 1013.03 1012.63 1012.71 1012.63 1012.35 1012.11 1012.31 1012.11 1011.71 1011.67 1011.95 1012.35 1013.39 1013.19 1012.23 1012.15 1012.31 1012.55 1012.75 1013.11 1013.43 1013.51 1013.79 1014.11 1014.47 1014.95 1015.23 1015.51 1015.55 1015.63 1015.75 1015.87 1016.07
1009.75 1008.55 1008.63 1010.43 1009.63 1008.95 1010.63 1012.63 1010.83 1014.11 1017.43 1017.31 1016.79 1017.47 1021.39 1021.47 1021.31 1020.35 1019.11 1018.83 1018.67 1018.79 1018.19 1016.87 1016.11 1015.71 1015.19 1014.31 1013.83 1013.71 1013.51 1013.19 1012.83 1012.59 1012.31 1012.03 1012.51 1012.15 1012.03 1012.11 1012.19 1012.63 1012.67 1012.79 1012.79 1012.19 1011.99 1012.03 1012.27 1012.67 1012.95 1013.23 1013.59 1013.87 1014.03 1014.31 1014.79 1014.87 1015.07 1015.23 1015.39 1015.55 1015.67
1010.55 1010.11 1010.75 1015.03 1013.47 1010.67 1010.15 1010.07 1012.19 1012.27 1013.71 1016.55 1017.63 1017.79 1018.15 1018.75 1021.31 1021.19 1020.43 1019.71 1019.67 1017.87 1017.91 1017.07 1016.75 1015.59 1015.03 1014.47 1014.03 1013.99 1013.67 1013.39 1013.23 1012.83 1012.31 1011.99 1012.39 1012.71 1012.03 1011.99 1011.95 1012.03 1012.19 1012.19 1012.35 1012.35 1012.03 1011.99 1012.23 1012.55 1012.83 1013.07 1013.43 1013.59 1013.87 1014.15 1014.23 1014.43 1014.79 1015.11 1015.27 1015.55 1015.51
1010.51 1013.59 1012.15 1013.27 1013.03 1013.83 1013.35 1013.31 1014.39 1013.67 1014.39 1014.31 1015.11 1017.43 1017.83 1018.71 1020.43 1021.15 1021.55 1021.03 1019.51 1017.67 1015.87 1016.27 1016.11 1015.59 1014.83 1014.51 1014.47 1013.99 1013.91 1013.67 1013.23 1013.03 1012.79 1012.51 1012.11 1012.67 1012.31 1011.79 1011.87 1011.59 1011.59 1011.75 1011.91 1012.07 1012.23 1011.55 1011.59 1012.15 1012.55 1012.87 1013.11 1013.35 1013.67 1013.79 1014.23 1014.47 1014.63 1014.75 1014.99 1015.23 1015.31
1014.11 1013.03 1010.99 1011.71 1012.23 1011.71 1012.51 1013.31 1014.63 1014.31 1015.31 1016.43 1018.23 1019.67 1018.63 1018.63 1018.99 1020.59 1020.95 1021.15 1018.83 1016.23 1014.71 1015.27 1014.71 1014.47 1014.51 1014.39 1014.35 1014.19 1013.79 1013.63 1013.51 1013.43 1013.31 1012.95 1012.59 1012.27 1012.31 1011.87 1011.47 1011.51 1011.19 1011.31 1011.51 1011.71 1012.15 1012.27 1011.79 1012.07 1012.31 1012.59 1012.95 1013.23 1013.31 1013.55 1013.75 1014.03 1014.35 1014.55 1014.71 1014.91 1015.07
1013.35 1012.27 1011.03 1009.75 1010.07 1010.99 1011.59 1012.19 1013.91 1013.71 1014.75 1015.07 1016.91 1020.11 1019.19 1019.35 1018.55 1017.87 1018.79 1020.11 1018.35 1015.07 1014.63 1014.31 1013.91 1014.23 1014.27 1013.95 1013.99 1014.35 1014.07 1013.59 1013.39 1013.27 1012.91 1012.67 1012.59 1012.31 1012.15 1012.11 1011.91 1011.71 1011.87 1011.51 1011.15 1011.47 1011.83 1012.27 1012.31 1011.75 1011.95 1012.31 1012.63 1012.87 1013.07 1013.27 1013.51 1013.79 1013.79 1014.03 1014.19 1014.47 1014.83
1012.91 1011.95 1010.79 1010.31 1010.35 1010.59 1012.31 1012.71 1012.95 1013.67 1014.63 1014.11 1015.35 1015.99 1016.35 1017.35 1018.75 1019.31 1019.67 1020.19 1017.99 1014.95 1014.19 1014.15 1014.23 1013.95 1013.71 1013.43 1013.43 1013.83 1013.71 1013.39 1013.31 1013.03 1012.75 1012.75 1012.51 1012.27 1012.31 1012.23 1012.59 1012.63 1011.99 1012.19 1011.79 1011.59 1011.83 1012.07 1012.47 1012.15 1011.75 1011.83 1012.19 1012.51 1012.75 1012.99 1013.31 1013.43 1013.59 1013.75 1013.99 1014.31 1014.59
1015.59 1014.11 1012.59 1012.27 1011.31 1011.47 1012.95 1013.51 1013.03 1012.55 1013.23 1013.75 1014.59 1015.03 1015.79 1017.39 1017.79 1017.63 1019.15 1021.31 1017.95 1014.67 1014.07 1014.47 1014.43 1013.71 1013.75 1013.51 1013.55 1013.47 1013.75 1013.83 1013.55 1013.15 1012.83 1012.43 1012.27 1012.31 1012.23 1012.87 1013.23 1013.51 1013.59 1012.59 1012.07 1011.55 1011.55 1011.87 1011.99 1012.11 1011.71 1011.71 1011.87 1012.19 1012.39 1012.71 1012.87 1012.99 1013.19 1013.35 1013.75 1014.07 1014.27
1019.47 1019.51 1019.11 1017.91 1016.19 1014.59 1013.23 1012.99 1012.99 1012.99 1013.47 1014.87 1015.39 1017.15 1017.11 1018.39 1017.71 1017.31 1018.59 1018.67 1016.03 1014.71 1014.55 1014.55 1014.15 1014.03 1013.63 1013.47 1013.63 1013.79 1013.99 1013.99 1013.87 1013.51 1013.39 1013.19 1012.31 1011.99 1011.99 1012.39 1013.23 1013.87 1013.83 1013.35 1012.67 1011.71 1011.27 1011.35 1011.63 1011.91 1011.75 1011.43 1011.55 1011.75 1011.95 1012.03 1012.51 1012.79 1012.95 1013.11 1013.43 1013.75 1014.03
1017.07 1016.15 1014.95 1013.47 1013.87 1013.99 1014.99 1013.63 1013.19 1013.27 1013.55 1013.67 1014.19 1015.83 1017.35 1017.83 1017.43 1017.71 1016.67 1016.11 1015.83 1015.35 1014.19 1014.15 1013.91 1013.91 1013.75 1013.63 1013.91 1014.35 1014.55 1014.15 1013.79 1013.67 1013.27 1012.83 1012.39 1011.55 1011.51 1011.79 1012.31 1012.59 1013.35 1013.99 1013.91 1013.19 1011.83 1010.95 1011.23 1011.47 1011.71 1011.75 1011.43 1011.47 1011.71 1011.79 1011.95 1012.27 1012.55 1012.87 1013.19 1013.47 1013.71
1013.43 1013.27 1013.63 1012.83 1013.03 1014.35 1013.51 1013.87 1014.03 1012.91 1013.99 1014.15 1014.31 1015.67 1016.27 1015.19 1017.31 1019.31 1016.03 1015.31 1016.15 1015.23 1014.15 1013.67 1013.79 1013.75 1013.83 1014.07 1014.11 1014.07 1014.19 1013.83 1013.43 1013.31 1013.39 1012.83 1012.59 1012.35 1011.55 1011.63 1012.15 1012.31 1012.19 1012.31 1012.87 1013.23 1013.27 1012.43 1011.11 1011.27 1011.35 1011.51 1011.67 1011.79 1011.95 1011.91 1011.83 1011.99 1012.23 1012.55 1012.87 1013.19 1013.39
1012.79 1012.91 1013.03 1012.59 1012.71 1012.75 1012.83 1012.75 1012.83 1013.55 1013.35 1013.99 1014.63 1014.15 1014.39 1014.75 1015.87 1016.67 1014.75 1015.27 1015.79 1014.71 1013.75 1013.07 1013.39 1013.55 1013.59 1013.55 1013.55 1013.95 1013.79 1013.87 1013.59 1013.63 1013.59 1013.47 1013.07 1012.95 1012.47 1012.03 1012.15 1012.51 1012.63 1012.07 1011.67 1012.19 1012.59 1013.03 1012.59 1011.31 1011.27 1011.47 1011.55 1011.55 1011.59 1011.75 1012.07 1012.35 1012.15 1012.19 1012.55 1012.87 1013.11
1012.75 1012.15 1011.83 1011.87 1012.31 1012.67 1012.55 1012.59 1012.67 1012.63 1013.35 1013.71 1013.11 1013.35 1013.87 1013.67 1013.95 1013.35 1013.83 1014.95 1014.51 1014.59 1014.15 1013.99 1014.03 1013.47 1013.23 1013.19 1013.55 1013.79 1014.03 1014.07 1013.99 1014.07 1014.03 1013.67 1013.51 1013.31 1012.79 1012.31 1012.07 1012.07 1012.19 1012.67 1012.63 1011.99 1012.11 1012.75 1013.23 1012.47 1011.47 1011.27 1011.35 1011.43 1011.55 1011.79 1012.15 1012.27 1012.19 1012.63 1012.71 1012.67 1012.95
1013.35 1012.35 1012.03 1012.03 1012.67 1012.99 1013.27 1012.95 1012.55 1012.79 1013.07 1012.99 1013.11 1013.07 1013.99 1013.71 1014.27 1014.87 1015.11 1015.83 1015.91 1014.91 1014.63 1014.51 1013.95 1013.55 1013.47 1013.51 1013.35 1013.35 1013.55 1013.91 1014.11 1014.15 1013.87 1013.67 1013.71 1013.43 1012.91 1012.35 1012.03 1011.95 1011.83 1011.75 1012.03 1012.27 1011.75 1011.71 1012.27 1012.63 1012.63 1011.47 1011.19 1011.27 1011.39 1011.59 1011.87 1012.11 1012.27 1012.59 1012.83 1013.07 1013.19
1015.03 1013.11 1013.03 1013.19 1012.91 1012.55 1013.23 1013.27 1012.79 1012.55 1012.99 1013.67 1012.75 1012.91 1013.23 1014.23 1014.63 1014.67 1015.67 1016.47 1016.15 1014.95 1014.51 1014.19 1013.87 1013.83 1013.79 1013.19 1012.83 1012.83 1013.35 1013.79 1014.15 1014.11 1013.95 1013.83 1013.63 1013.35 1013.03 1012.47 1011.99 1011.87 1011.95 1011.83 1011.55 1011.55 1011.83 1011.79 1011.43 1011.47 1012.23 1012.11 1011.27 1011.19 1011.23 1011.51 1011.75 1011.83 1012.07 1012.47 1012.87 1013.15 1013.07
1015.47 1013.83 1013.95 1013.75 1013.35 1013.43 1014.71 1014.51 1012.95 1012.43 1012.23 1012.51 1012.75 1012.87 1012.63 1012.43 1012.51 1014.79 1015.91 1015.31 1013.71 1014.31 1014.31 1014.51 1014.35 1013.99 1013.67 1013.35 1013.15 1013.63 1013.87 1013.87 1013.99 1014.07 1013.87 1013.67 1013.47 1013.23 1013.03 1012.75 1012.43 1012.15 1012.03 1011.83 1011.67 1011.59 1011.47 1011.43 1011.59 1011.43 1011.31 1011.59 1011.59 1011.19 1011.15 1011.15 1011.35 1011.67 1011.99 1012.07 1012.19 1012.31 1012.39
1015.43 1014.31 1013.99 1013.75 1014.91 1017.99 1016.83 1012.03 1011.03 1011.63 1012.75 1013.03 1013.67 1014.63 1013.79 1013.07 1012.07 1013.11 1012.91 1013.39 1013.87 1014.15 1014.43 1013.39 1013.43 1013.67 1013.63 1013.43 1013.59 1013.59 1013.91 1014.07 1013.95 1013.75 1013.67 1013.47 1013.35 1013.19 1012.99 1012.79 1012.59 1012.35 1012.11 1011.87 1011.75 1011.67 1011.63 1011.51 1011.23 1011.15 1011.11 1011.27 1010.99 1010.87 1010.71 1010.75 1010.99 1011.47 1011.83 1011.99 1011.95 1012.11 1012.07
1015.47 1014.15 1014.11 1015.51 1018.35 1017.51 1012.71 1010.95 1011.03 1011.91 1012.47 1013.07 1014.27 1014.59 1014.51 1014.47 1013.87 1013.67 1013.99 1014.11 1013.99 1013.67 1013.07 1012.59 1012.39 1013.27 1013.99 1013.67 1013.59 1013.59 1013.39 1013.55 1013.75 1013.79 1013.59 1013.43 1013.35 1013.35 1013.19 1012.91 1012.67 1012.47 1012.19 1011.83 1011.71 1011.67 1011.75 1011.71 1011.55 1011.35 1011.23 1011.03 1011.07 1011.03 1010.79 1010.79 1010.79 1011.23 1011.51 1011.67 1011.79 1011.75 1011.83
1014.55 1015.35 1016.15 1019.03 1017.43 1013.75 1012.23 1011.87 1011.15 1011.47 1012.31 1012.63 1012.91 1015.07 1014.55 1014.39 1014.47 1013.47 1014.11 1014.31 1013.95 1013.79 1013.59 1013.67 1013.87 1013.95 1013.87 1013.83 1013.59 1013.39 1013.19 1013.11 1013.35 1013.55 1013.59 1013.47 1013.23 1013.23 1013.03 1012.83 1012.63 1012.47 1012.27 1012.03 1011.79 1011.71 1011.55 1011.55 1011.59 1011.47 1011.43 1011.19 1011.23 1011.23 1010.87 1010.59 1010.55 1010.83 1011.39 1011.55 1011.47 1011.59 1011.63
1015.47 1015.95 1016.07 1016.07 1014.75 1013.87 1012.91 1012.55 1012.19 1011.91 1012.51 1012.11 1012.31 1015.95 1015.99 1014.15 1014.15 1014.15 1014.23 1014.19 1013.79 1013.75 1014.07 1014.07 1013.95 1013.99 1014.11 1014.35 1014.07 1013.43 1013.15 1012.99 1012.83 1012.99 1013.11 1013.03 1012.95 1012.87 1012.71 1012.63 1012.51 1012.19 1011.95 1011.83 1011.67 1011.39 1011.27 1011.23 1011.35 1011.35 1011.07 1011.03 1011.15 1011.35 1011.59 1011.23 1010.79 1010.87 1011.27 1011.55 1011.43 1011.31 1011.43
1014.07 1015.63 1016.79 1016.39 1016.27 1017.79 1015.51 1012.95 1011.63 1010.59 1010.47 1010.75 1011.71 1013.23 1016.07 1013.87 1014.11 1013.75 1013.35 1013.43 1013.43 1013.79 1014.15 1014.15 1014.15 1014.27 1014.95 1014.83 1014.03 1013.67 1013.11 1012.79 1012.67 1012.51 1012.47 1012.55 1012.71 1012.75 1012.67 1012.47 1012.31 1012.11 1011.87 1011.63 1011.43 1011.35 1011.23 1011.03 1010.91 1010.95 1010.83 1010.67 1010.75 1011.11 1011.43 1011.59 1011.83 1011.75 1011.51 1011.63 1011.71 1011.35 1011.39
1014.71 1015.11 1016.35 1017.07 1017.75 1016.35 1014.11 1013.15 1011.71 1011.19 1010.95 1010.87 1011.03 1013.31 1016.71 1013.83 1013.55 1013.79 1012.99 1013.39 1013.47 1013.71 1014.11 1014.39 1014.39 1015.03 1015.43 1014.31 1013.71 1013.19 1012.95 1012.75 1012.67 1012.79 1012.71 1012.71 1012.71 1012.75 1012.71 1012.67 1012.55 1012.27 1011.99 1011.67 1011.47 1011.43 1011.39 1011.31 1010.83 1010.47 1010.43 1010.31 1010.15 1010.31 1010.67 1011.07 1011.43 1011.91 1012.03 1011.79 1011.91 1011.87 1011.55
1014.47 1014.79 1015.83 1017.03 1015.35 1015.79 1013.79 1012.79 1012.07 1011.23 1011.43 1010.91 1011.79 1016.51 1016.35 1013.39 1012.95 1013.31 1013.15 1013.15 1013.47 1013.63 1013.87 1014.07 1014.47 1014.71 1014.99 1014.11 1013.27 1012.75 1012.83 1012.91 1012.91 1013.03 1013.11 1013.03 1012.95 1012.87 1012.71 1012.59 1012.43 1012.27 1011.95 1011.71 1011.59 1011.59 1011.47 1011.11 1010.55 1010.03 1009.51 1009.31 1009.43 1009.79 1010.31 1010.51 1011.15 1011.47 1011.79 1012.11 1012.39 1012.39 1011.83
1014.63 1014.75 1015.91 1015.55 1015.07 1013.39 1012.31 1012.11 1011.55 1010.95 1010.83 1011.47 1015.35 1017.43 1014.27 1012.23 1012.39 1012.71 1012.47 1012.59 1012.83 1013.19 1013.67 1013.91 1014.23 1013.43 1012.95 1013.03 1013.03 1012.83 1012.83 1013.07 1013.19 1013.11 1013.07 1013.07 1012.99 1013.07 1012.87 1012.83 1012.51 1012.43 1012.27 1012.07 1011.99 1011.79 1011.43 1010.87 1010.11 1009.03 1008.11 1008.31 1008.79 1009.23 1009.91 1010.35 1010.75 1011.07 1011.19 1011.47 1012.11 1012.47 1012.07
1014.59 1014.83 1015.19 1015.79 1015.19 1012.75 1011.47 1011.11 1011.35 1010.75 1011.91 1015.75 1016.35 1012.95 1011.67 1011.71 1012.23 1012.47 1012.35 1012.51 1012.75 1012.87 1012.95 1013.23 1013.15 1012.67 1012.79 1012.91 1012.87 1013.03 1013.15 1013.31 1013.43 1013.35 1013.31 1013.23 1013.07 1012.99 1012.83 1012.71 1012.71 1012.67 1012.51 1012.27 1012.03 1011.75 1011.27 1010.75 1009.83 1008.95 1008.75 1008.91 1009.27 1009.47 1009.95 1010.59 1010.87 1011.03 1011.23 1011.59 1011.99 1012.19 1012.19
1014.39 1014.71 1015.43 1016.43 1018.03 1013.23 1011.15 1011.07 1011.39 1011.19 1013.91 1013.63 1012.11 1011.43 1011.95 1011.71 1011.79 1012.11 1012.71 1012.35 1012.59 1012.71 1012.99 1012.79 1012.67 1012.87 1013.19 1013.23 1013.31 1013.31 1013.23 1013.35 1013.67 1013.63 1013.55 1013.59 1013.59 1013.55 1013.39 1013.23 1013.03 1012.87 1012.79 1012.55 1012.35 1012.07 1011.47 1010.91 1010.27 1009.83 1009.91 1009.91 1010.03 1010.03 1010.59 1010.87 1010.91 1011.03 1011.27 1011.67 1012.03 1012.31 1012.31
1014.47 1015.47 1016.19 1016.03 1012.91 1011.39 1010.91 1011.19 1013.39 1012.19 1011.47 1010.91 1010.95 1011.51 1012.11 1011.95 1012.07 1012.23 1012.39 1012.51 1012.27 1012.39 1012.39 1012.71 1012.87 1013.11 1013.39 1013.47 1013.43 1013.39 1013.43 1013.51 1013.63 1013.59 1013.59 1013.59 1013.59 1013.59 1013.51 1013.43 1013.39 1013.19 1013.07 1012.79 1012.59 1012.23 1011.67 1011.19 1010.99 1010.75 1010.67 1010.59 1010.71 1010.87 1011.07 1010.83 1010.99 1011.27 1011.47 1011.75 1012.07 1012.55 1012.79
1012.51 1013.59 1012.99 1011.19 1010.23 1010.31 1010.27 1010.31 1010.79 1010.71 1010.71 1010.51 1010.59 1010.91 1011.51 1012.03 1012.15 1011.91 1012.11 1012.23 1012.23 1012.11 1012.15 1012.59 1012.91 1013.35 1013.39 1013.51 1013.47 1013.59 1013.67 1013.63 1013.67 1013.83 1013.87 1013.83 1013.83 1013.83 1013.79 1013.71 1013.55 1013.43 1013.39 1013.19 1012.91 1012.59 1012.03 1011.47 1011.35 1011.35 1011.31 1011.27 1011.11 1011.27 1011.31 1010.99 1011.35 1011.79 1012.03 1012.19 1012.43 1012.99 1013.23
1010.75 1010.27 1010.23 1010.23 1010.79 1010.43 1010.63 1010.27 1010.23 1010.67 1010.91 1010.75 1010.51 1010.91 1011.75 1011.79 1011.47 1011.59 1011.63 1011.87 1011.99 1012.15 1012.27 1012.63 1013.27 1013.27 1013.43 1013.59 1013.71 1013.67 1013.67 1013.71 1013.79 1013.75 1013.87 1013.91 1013.75 1013.71 1013.75 1013.79 1013.75 1013.71 1013.63 1013.47 1013.27 1012.99 1012.55 1011.99 1011.79 1011.75 1011.95 1011.95 1012.03 1011.99 1011.47 1011.51 1011.75 1012.07 1012.39 1012.71 1012.95 1013.19 1013.31
1011.63 1013.23 1010.99 1010.43 1010.83 1010.95 1010.83 1010.83 1010.75 1010.55 1010.51 1010.51 1010.39 1010.63 1010.79 1011.31 1011.43 1011.43 1011.51 1011.51 1011.75 1011.95 1012.27 1012.39 1012.91 1013.43 1013.47 1013.63 1013.71 1013.71 1013.71 1013.87 1014.11 1014.27 1014.31 1014.31 1014.11 1014.07 1014.15 1014.07 1013.95 1013.95 1013.91 1013.91 1013.79 1013.55 1013.27 1012.75 1012.35 1012.27 1012.43 1012.47 1012.47 1012.35 1012.27 1012.31 1012.43 1012.71 1012.99 1012.91 1013.11 1013.55 1013.91
1011.91 1011.95 1011.91 1011.75 1011.43 1011.39 1011.15 1010.91 1010.99 1011.11 1010.83 1010.71 1010.51 1010.27 1010.55 1010.71 1011.19 1011.27 1011.51 1011.75 1011.91 1012.11 1012.43 1012.63 1012.99 1013.43 1013.47 1013.59 1013.79 1013.87 1013.99 1014.23 1014.43 1014.51 1014.47 1014.47 1014.43 1014.31 1014.23 1014.19 1014.15 1014.23 1014.31 1014.31 1014.19 1013.87 1013.79 1013.47 1012.99 1012.79 1012.83 1013.15 1013.23 1013.15 1013.07 1013.15 1013.23 1013.31 1013.47 1013.43 1013.71 1014.15 1014.31
1012.91 1012.47 1012.19 1011.71 1011.31 1011.47 1011.47 1011.27 1010.99 1010.75 1010.59 1010.71 1010.75 1010.47 1010.71 1011.03 1011.47 1011.59 1011.71 1011.63 1011.67 1011.87 1012.19 1012.63 1012.91 1013.35 1013.47 1013.47 1013.59 1013.91 1014.23 1014.43 1014.59 1014.67 1014.67 1014.63 1014.55 1014.43 1014.43 1014.51 1014.43 1014.55 1014.59 1014.59 1014.51 1014.35 1014.35 1013.99 1013.63 1013.47 1013.55 1013.67 1013.67 1013.67 1013.71 1013.79 1013.75 1013.71 1013.87 1014.07 1014.23 1014.47 1014.59
1013.43 1013.27 1012.91 1011.55 1012.95 1014.11 1012.67 1011.95 1011.35 1011.07 1010.79 1010.71 1011.07 1011.07 1011.27 1011.35 1011.63 1011.83 1011.91 1011.99 1011.95 1011.91 1012.19 1012.47 1012.71 1013.07 1013.35 1013.39 1013.55 1014.03 1014.27 1014.51 1014.63 1014.67 1014.63 1014.59 1014.55 1014.55 1014.51 1014.51 1014.59 1014.63 1014.67 1014.71 1014.79 1014.75 1014.75 1014.47 1014.15 1014.03 1013.95 1013.83 1013.71 1013.75 1013.91 1014.07 1014.15 1014.23 1014.31 1014.51 1014.71 1014.91 1014.91
1012.67 1011.39 1010.75 1010.71 1010.75 1011.71 1011.91 1011.79 1011.59 1011.27 1011.03 1010.83 1011.23 1011.51 1011.47 1011.55 1011.47 1011.59 1011.79 1012.27 1012.39 1012.31 1012.43 1012.35 1012.47 1012.87 1013.11 1013.47 1013.67 1014.11 1014.43 1014.59 1014.51 1014.47 1014.47 1014.59 1014.67 1014.67 1014.59 1014.67 1014.75 1014.87 1014.95 1014.95 1015.03 1015.07 1014.95 1014.75 1014.63 1014.47 1014.31 1014.03 1013.99 1013.95 1014.19 1014.39 1014.39 1014.55 1014.51 1014.67 1014.99 1015.15 1015.23
1010.75 1010.47 1010.59 1010.71 1010.67 1011.63 1011.91 1011.83 1011.55 1011.43 1011.27 1011.07 1011.51 1011.51 1011.47 1011.47 1011.55 1011.59 1011.67 1011.75 1012.07 1012.55 1012.55 1012.59 1012.51 1012.79 1013.27 1013.47 1013.63 1014.19 1014.43 1014.43 1014.47 1014.51 1014.59 1014.59 1014.63 1014.59 1014.59 1014.71 1014.87 1014.95 1014.99 1014.95 1015.07 1015.19 1015.15 1015.15 1015.07 1014.83 1014.67 1014.55 1014.43 1014.31 1014.43 1014.55 1014.43 1014.59 1014.79 1014.99 1015.23 1015.39 1015.51
1010.67 1010.03 1010.31 1010.51 1010.63 1011.23 1011.39 1011.51 1011.43 1011.47 1011.39 1011.19 1011.55 1011.71 1011.59 1011.55 1011.59 1011.51 1011.75 1012.07 1012.07 1012.15 1012.55 1012.79 1012.91 1012.87 1013.19 1013.63 1013.71 1013.95 1014.23 1014.39 1014.39 1014.51 1014.55 1014.63 1014.59 1014.67 1014.75 1014.79 1014.87 1014.91 1014.99 1015.07 1015.07 1015.11 1015.15 1015.23 1015.27 1015.19 1015.07 1014.91 1014.67 1014.55 1014.55 1014.51 1014.55 1014.83 1015.07 1015.27 1015.47 1015.67 1015.79
Thickness
5793 5788 5789 5796 5781 5760 5755 5753 5743 5744 5756 5750 5727 5715 5722 5722 5706 5705 5715 5715 5723 5735 5743 5753 5758 5757 5761 5764 5766 5770 5770 5774 5776 5774 5777 5779 5780 5785 5786 5785 5785 5785 5785 5788 5791 5792 5790 5790 5790 5787 5786 5786 5784 5783 5781 5780 5780 5779 5779 5779 5779 5780 5779
5785 5793 5790 5791 5790 5779 5760 5743 5746 5755 5755 5750 5734 5713 5709 5707 5696 5702 5712 5708 5712 5718 5724 5741 5750 5747 5750 5756 5760 5763 5765 5769 5770 5771 5775 5776 5777 5780 5783 5784 5784 5783 5780 5782 5788 5793 5792 5792 5791 5789 5788 5788 5787 5786 5783 5782 5780 5780 5780 5780 5781 5780 5780
5777 5791 5782 5769 5776 5786 5774 5759 5763 5755 5732 5726 5725 5711 5699 5692 5687 5695 5703 5703 5707 5710 5713 5727 5734 5736 5742 5749 5753 5755 5757 5761 5764 5767 5772 5774 5773 5775 5779 5782 5781 5781 5780 5780 5785 5790 5793 5794 5792 5791 5789 5788 5788 5787 5786 5785 5783 5783 5782 5782 5782 5781 5781
5772 5775 5766 5748 5749 5767 5774 5767 5763 5753 5734 5725 5721 5713 5706 5697 5685 5684 5690 5695 5701 5708 5717 5723 5727 5735 5741 5745 5750 5752 5753 5757 5759 5761 5766 5770 5769 5770 5775 5780 5780 5781 5782 5782 5785 5787 5792 5795 5794 5792 5789 5788 5788 5787 5786 5785 5784 5785 5784 5782 5782 5781 5782
5762 5754 5753 5749 5743 5751 5754 5747 5743 5742 5738 5733 5723 5713 5709 5705 5691 5681 5681 5685 5696 5714 5728 5729 5730 5736 5741 5744 5747 5750 5753 5756 5756 5757 5760 5764 5767 5768 5772 5777 5779 5782 5784 5785 5786 5786 5789 5793 5795 5793 5790 5788 5788 5787 5787 5786 5785 5784 5784 5783 5782 5782 5782
5746 5747 5758 5763 5757 5755 5752 5744 5738 5737 5733 5727 5713 5698 5698 5703 5698 5691 5685 5681 5697 5725 5735 5735 5739 5740 5741 5744 5744 5746 5751 5754 5755 5757 5757 5759 5763 5765 5768 5774 5777 5781 5784 5785 5787 5786 5784 5788 5792 5793 5791 5789 5788 5787 5787 5787 5786 5785 5785 5784 5784 5783 5782
5745 5751 5763 5767 5763 5762 5758 5749 5744 5738 5732 5726 5710 5695 5697 5701 5697 5699 5694 5684 5702 5730 5737 5738 5743 5742 5742 5745 5744 5743 5747 5752 5755 5757 5759 5760 5762 5764 5766 5768 5772 5775 5778 5780 5784 5785 5783 5783 5787 5791 5793 5791 5788 5788 5788 5787 5787 5786 5786 5786 5786 5784 5783
5748 5755 5761 5765 5765 5761 5750 5745 5745 5739 5734 5734 5725 5716 5714 5705 5697 5699 5690 5682 5704 5731 5737 5737 5739 5741 5744 5745 5745 5743 5743 5749 5752 5754 5759 5760 5761 5764 5764 5764 5763 5765 5769 5773 5778 5782 5782 5781 5782 5788 5793 5792 5790 5789 5789 5788 5787 5787 5788 5787 5786 5785 5783
5724 5730 5734 5741 5749 5749 5741 5739 5743 5741 5737 5734 5727 5723 5718 5705 5700 5703 5690 5683 5707 5730 5733 5732 5735 5739 5742 5743 5743 5743 5742 5744 5747 5751 5755 5757 5760 5762 5763 5760 5756 5754 5759 5765 5773 5779 5781 5781 5781 5785 5790 5792 5792 5790 5789 5790 5789 5788 5789 5788 5787 5786 5784
5698 5701 5706 5717 5727 5733 5736 5737 5740 5739 5735 5730 5724 5717 5707 5698 5700 5704 5696 5693 5711 5727 5730 5730 5733 5737 5739 5741 5741 5738 5738 5740 5743 5746 5749 5751 5757 5762 5762 5761 5755 5751 5751 5755 5762 5773 5779 5782 5781 5782 5787 5790 5792 5791 5791 5791 5790 5789 5789 5789 5787 5786 5785
5712 5712 5719 5729 5728 5726 5728 5730 5735 5735 5731 5730 5725 5711 5702 5703 5700 5698 5703 5710 5714 5721 5727 5730 5733 5734 5735 5738 5736 5733 5733 5737 5740 5743 5746 5749 5755 5759 5763 5762 5757 5756 5755 5751 5751 5759 5769 5779 5782 5781 5784 5788 5790 5790 5790 5792 5791 5790 5790 5789 5788 5787 5786
5732 5730 5732 5737 5732 5727 5729 5730 5732 5732 5728 5726 5723 5714 5712 5713 5699 5692 5708 5717 5711 5716 5729 5732 5732 5734 5733 5733 5734 5732 5733 5736 5740 5742 5744 5748 5750 5754 5759 5758 5755 5756 5758 5759 5757 5756 5759 5768 5776 5781 5782 5783 5787 5789 5788 5790 5791 5791 5790 5790 5788 5787 5787
5735 5736 5736 5738 5737 5734 5736 5735 5733 5733 5729 5725 5723 5721 5720 5719 5708 5706 5717 5719 5712 5720 5730 5730 5731 5732 5733 5734 5734 5733 5732 5734 5737 5738 5739 5743 5744 5746 5751 5754 5753 5752 5754 5758 5761 5761 5759 5758 5764 5775 5780 5781 5783 5785 5786 5787 5787 5788 5789 5789 5788 5787 5786
5733 5738 5739 5741 5739 5734 5734 5736 5735 5733 5728 5726 5728 5725 5722 5723 5722 5721 5721 5715 5714 5720 5722 5724 5727 5729 5732 5734 5732 5732 5731 5730 5731 5733 5735 5738 5739 5740 5745 5750 5753 5753 5753 5753 5755 5759 5762 5758 5758 5765 5772 5778 5781 5782 5784 5785 5783 5783 5784 5784 5784 5784 5785
5722 5733 5736 5735 5733 5729 5728 5730 5732 5732 5727 5725 5728 5725 5720 5719 5719 5718 5714 5707 5708 5715 5718 5720 5725 5727 5729 5731 5732 5733 5731 5729 5729 5730 5733 5735 5735 5737 5741 5747 5751 5753 5754 5754 5754 5757 5761 5762 5762 5761 5764 5772 5777 5779 5781 5782 5780 5780 5780 5780 5779 5779 5781
5709 5723 5726 5722 5727 5728 5724 5724 5727 5730 5727 5723 5725 5725 5721 5719 5716 5710 5704 5700 5706 5714 5718 5719 5721 5723 5726 5729 5733 5733 5729 5727 5726 5727 5731 5733 5734 5736 5739 5743 5748 5751 5752 5755 5757 5758 5759 5761 5765 5765 5764 5767 5772 5776 5778 5778 5778 5778 5778 5779 5778 5778 5780
5702 5715 5716 5716 5720 5711 5705 5717 5728 5729 5727 5724 5722 5722 5723 5726 5724 5713 5705 5708 5714 5716 5715 5717 5718 5719 5723 5727 5729 5727 5724 5724 5725 5726 5730 5731 5733 5737 5738 5741 5745 5747 5750 5753 5755 5757 5758 5759 5762 5764 5765 5766 5769 5774 5776 5776 5776 5775 5775 5777 5780 5780 5781
5698 5707 5715 5712 5699 5686 5697 5725 5736 5729 5724 5721 5714 5710 5713 5720 5724 5721 5715 5716 5716 5714 5715 5721 5722 5720 5721 5723 5723 5723 5722 5722 5723 5725 5729 5731 5732 5735 5737 5739 5742 5744 5747 5750 5752 5754 5755 5757 5759 5761 5763 5765 5767 5771 5773 5775 5775 5772 5772 5775 5778 5779 5781
5700 5705 5707 5690 5675 5687 5714 5734 5734 5725 5720 5718 5712 5705 5706 5711 5714 5717 5715 5711 5713 5715 5717 5722 5722 5718 5717 5718 5719 5721 5722 5722 5723 5724 5726 5729 5731 5732 5733 5736 5739 5741 5744 5747 5749 5750 5752 5753 5756 5757 5760 5762 5763 5766 5769 5772 5773 5771 5770 5773 5776 5778 5779
5699 5696 5689 5675 5680 5705 5724 5728 5728 5723 5717 5718 5714 5701 5699 5706 5709 5710 5710 5707 5711 5715 5715 5715 5715 5712 5713 5715 5716 5718 5722 5723 5723 5722 5723 5727 5728 5730 5732 5733 5735 5738 5742 5743 5745 5748 5749 5749 5751 5753 5755 5758 5759 5760 5763 5768 5771 5770 5768 5769 5773 5775 5777
5695 5687 5683 5686 5692 5701 5709 5716 5723 5724 5721 5724 5720 5698 5694 5706 5708 5706 5708 5707 5709 5712 5710 5709 5710 5709 5707 5707 5709 5715 5719 5721 5723 5724 5724 5726 5727 5728 5730 5731 5734 5737 5740 5742 5744 5745 5747 5748 5749 5750 5753 5755 5755 5754 5754 5758 5762 5765 5765 5765 5768 5772 5773
5694 5687 5681 5681 5678 5678 5692 5706 5719 5727 5726 5728 5725 5703 5692 5704 5709 5707 5711 5711 5709 5709 5705 5704 5706 5703 5699 5700 5705 5711 5715 5718 5722 5723 5723 5725 5725 5725 5727 5728 5731 5734 5737 5741 5742 5742 5743 5745 5746 5749 5752 5754 5755 5754 5752 5752 5753 5755 5758 5761 5764 5766 5768
5691 5687 5678 5673 5671 5676 5693 5706 5716 5723 5721 5724 5725 5700 5686 5702 5710 5707 5710 5711 5707 5706 5702 5701 5700 5695 5693 5699 5705 5709 5713 5715 5717 5717 5719 5721 5722 5722 5725 5726 5727 5730 5734 5737 5738 5738 5738 5740 5744 5749 5751 5754 5757 5757 5755 5753 5749 5748 5751 5754 5755 5757 5760
5688 5686 5679 5677 5680 5687 5698 5707 5713 5717 5720 5724 5710 5681 5681 5707 5713 5706 5710 5710 5706 5705 5702 5698 5697 5694 5695 5701 5705 5708 5710 5711 5711 5712 5713 5715 5717 5719 5721 5722 5723 5726 5729 5731 5732 5732 5734 5737 5742 5750 5756 5758 5760 5759 5755 5752 5749 5748 5748 5748 5748 5748 5753
5685 5683 5677 5677 5684 5694 5704 5708 5712 5718 5719 5709 5687 5675 5694 5716 5712 5707 5712 5710 5705 5706 5702 5698 5698 5701 5703 5704 5705 5706 5706 5705 5706 5708 5709 5711 5713 5715 5716 5717 5719 5721 5723 5725 5726 5727 5731 5736 5743 5754 5760 5758 5757 5757 5754 5749 5747 5746 5746 5745 5745 5745 5748
5684 5683 5679 5672 5676 5696 5711 5711 5714 5718 5706 5686 5683 5697 5712 5715 5710 5709 5709 5707 5705 5706 5703 5702 5703 5704 5705 5703 5702 5702 5701 5700 5701 5702 5704 5707 5708 5709 5711 5713 5714 5716 5717 5720 5720 5723 5728 5733 5741 5750 5750 5744 5746 5751 5748 5742 5741 5740 5740 5740 5740 5740 5742
5681 5677 5672 5662 5667 5694 5714 5710 5707 5708 5697 5690 5701 5712 5711 5709 5710 5707 5704 5704 5706 5704 5702 5703 5704 5702 5700 5698 5698 5697 5697 5696 5697 5697 5699 5702 5703 5704 5706 5706 5708 5710 5712 5714 5716 5718 5724 5729 5735 5739 5736 5732 5737 5742 5740 5737 5737 5737 5737 5736 5734 5734 5735
5682 5671 5670 5676 5686 5703 5714 5708 5702 5703 5705 5709 5713 5710 5704 5705 5706 5703 5702 5704 5704 5704 5704 5703 5700 5698 5696 5694 5694 5694 5693 5693 5693 5692 5695 5697 5697 5699 5700 5700 5703 5705 5706 5709 5711 5714 5720 5725 5728 5729 5728 5727 5731 5733 5733 5735 5736 5733 5732 5732 5729 5726 5726
5693 5687 5689 5700 5707 5709 5712 5711 5710 5709 5711 5713 5713 5709 5704 5702 5701 5702 5702 5701 5702 5704 5704 5700 5697 5695 5693 5691 5691 5691 5690 5689 5689 5689 5690 5692 5693 5695 5695 5697 5699 5700 5701 5703 5706 5710 5716 5721 5722 5722 5723 5724 5726 5728 5730 5733 5732 5728 5726 5724 5722 5719 5718
5697 5699 5703 5706 5706 5704 5707 5711 5711 5710 5709 5710 5711 5709 5703 5701 5702 5703 5703 5702 5703 5702 5700 5697 5694 5691 5690 5689 5688 5688 5688 5687 5685 5685 5685 5686 5689 5690 5692 5693 5695 5696 5697 5698 5701 5704 5709 5715 5718 5718 5718 5718 5720 5722 5724 5725 5725 5723 5719 5717 5715 5713 5713
5690 5689 5694 5699 5700 5698 5701 5704 5704 5706 5707 5707 5709 5709 5704 5702 5703 5702 5702 5702 5701 5699 5697 5695 5692 5687 5688 5687 5684 5685 5685 5682 5680 5680 5680 5681 5683 5685 5687 5688 5690 5691 5692 5693 5695 5699 5702 5706 5711 5713 5713 5712 5712 5714 5716 5716 5715 5714 5713 5712 5710 5707 5706
5684 5680 5683 5691 5693 5694 5698 5699 5699 5702 5703 5703 5706 5707 5704 5702 5700 5700 5700 5699 5697 5696 5695 5692 5688 5686 5685 5684 5683 5682 5680 5677 5676 5676 5676 5677 5679 5680 5682 5684 5685 5686 5687 5688 5691 5693 5695 5699 5703 5706 5706 5704 5704 5705 5707 5706 5706 5706 5706 5707 5705 5701 5700
5676 5672 5677 5685 5686 5685 5690 5694 5696 5698 5700 5700 5701 5703 5701 5699 5696 5695 5695 5695 5695 5695 5692 5689 5687 5684 5682 5682 5682 5678 5675 5673 5673 5672 5673 5674 5675 5676 5678 5679 5680 5682 5683 5684 5687 5688 5689 5692 5696 5698 5699 5698 5697 5699 5698 5698 5699 5698 5698 5698 5697 5695 5697
5667 5670 5679 5686 5682 5676 5679 5687 5691 5694 5696 5697 5696 5696 5696 5695 5692 5691 5692 5690 5691 5691 5689 5688 5686 5682 5680 5681 5679 5675 5673 5670 5669 5670 5671 5672 5672 5674 5675 5675 5676 5678 5678 5680 5682 5682 5683 5687 5689 5691 5694 5694 5694 5694 5693 5691 5691 5691 5691 5691 5690 5690 5692
5673 5681 5686 5688 5686 5679 5678 5683 5687 5689 5692 5694 5691 5691 5691 5691 5690 5690 5689 5687 5686 5685 5685 5685 5685 5682 5679 5678 5675 5672 5669 5667 5668 5669 5669 5669 5670 5671 5672 5672 5672 5673 5673 5675 5676 5677 5679 5681 5684 5687 5690 5689 5689 5690 5689 5687 5688 5689 5689 5688 5687 5687 5687
5681 5684 5685 5687 5686 5682 5679 5681 5683 5686 5688 5689 5687 5687 5689 5689 5688 5688 5687 5685 5684 5682 5681 5681 5681 5679 5676 5674 5672 5668 5665 5665 5666 5667 5665 5667 5668 5668 5669 5670 5669 5669 5671 5671 5672 5674 5675 5677 5679 5681 5683 5683 5685 5686 5686 5686 5687 5688 5687 5686 5685 5685 5685
5686 5684 5684 5686 5685 5681 5679 5680 5681 5682 5685 5685 5684 5683 5684 5685 5685 5685 5684 5682 5682 5681 5679 5677 5676 5675 5674 5671 5669 5667 5664 5663 5663 5663 5663 5664 5665 5665 5667 5667 5667 5668 5668 5668 5669 5671 5672 5674 5675 5677 5678 5680 5682 5683 5684 5685 5686 5686 5685 5684 5684 5683 5683